Location: Utrecht
(52.0907°N, 5.1214°E)
Time: 17:13:28
(UTC+02:00)

NANOSAT C BR1 - Pass Details

Date: 07 July 2022
Orbit: 584 x 599 km, 98.0° (Epoch: 14 August)

Event Time Altitude Azimuth Distance (km) Brightness Sun altitude
Rises 04:02:30 0° 14° (NNE) 2,856 ? -9.5°
Reaches altitude 10° 04:04:40 10° 14° (NNE) 1,951 ? -9.3°
Maximum altitude 04:08:55 89° 285° (WNW) 608 ? -8.9°
Drops below altitude 10° 04:13:09 10° 197° (SSW) 1,939 ? -8.6°
Enters shadow 04:13:11 10° 197° (SSW) 1,953 ? -8.6°
